This is the latest recevied weather packets stored in our database for station/object KS5S. If no packets are shown the sender has not sent any weather packets the latest 10 day(s).
| Time | Temp. | Humidity | Pressure | Rain* | Wind** | Luminosity | Snow |
|---|---|---|---|---|---|---|---|
| 1777639273 | 14.44° C | 92% | 1014.5 hPa | 0 mm | - | 17 W/m² | - |
| 1777638969 | 14.44° C | 92% | 1014.5 hPa | 0 mm | - | 17 W/m² | - |
| 1777638665 | 14.44° C | 92% | 1014.5 hPa | 0 mm | - | 9 W/m² | - |
| 1777638362 | 14.44° C | 92% | 1014.2 hPa | 0 mm | - | 7 W/m² | - |
| 1777638058 | 14.44° C | 92% | 1014.3 hPa | 0 mm | - | 8 W/m² | - |
| 1777637755 | 14.44° C | 92% | 1013.9 hPa | 0 mm | - | 5 W/m² | - |
| 1777637451 | 14.44° C | 92% | 1014 hPa | 0 mm | - | 4 W/m² | - |
| 1777637149 | 14.44° C | 92% | 1013.7 hPa | 0 mm | - | 3 W/m² | - |
| 1777636845 | 14.44° C | 92% | 1013.8 hPa | 0 mm | - | 1 W/m² | - |
| 1777636541 | 14.44° C | 92% | 1013.8 hPa | 0 mm | - | 1 W/m² | - |
| 1777636237 | 14.44° C | 92% | 1013.3 hPa | 0 mm | - | 1 W/m² | - |
| 1777635937 | 14.44° C | 93% | 1013 hPa | 0 mm | - | 1 W/m² | - |
| 1777635633 | 14.44° C | 93% | 1013 hPa | 0 mm | - | 1 W/m² | - |
| 1777635331 | 14.44° C | 92% | 1012.8 hPa | 0 mm | - | 0 W/m² | - |
| 1777635027 | 14.44° C | 93% | 1012.7 hPa | 0 mm | - | 0 W/m² | - |
| 1777634723 | 14.44° C | 92% | 1013.1 hPa | 0 mm | - | 0 W/m² | - |
| 1777634421 | 14.44° C | 92% | 1013.1 hPa | 0 mm | - | 0 W/m² | - |
| 1777634118 | 14.44° C | 93% | 1013.1 hPa | 0 mm | - | 0 W/m² | - |
| 1777633814 | 14.44° C | 93% | 1013 hPa | 0 mm | - | 0 W/m² | - |
| 1777633512 | 14.44° C | 93% | 1013 hPa | 0 mm | - | 0 W/m² | - |
| 1777633210 | 14.44° C | 93% | 1012.9 hPa | 0 mm | - | 0 W/m² | - |
| 1777632907 | 14.44° C | 93% | 1013 hPa | 0 mm | - | 0 W/m² | - |
| 1777632602 | 14.44° C | 92% | 1012.8 hPa | 0.51 mm | - | 0 W/m² | - |
| 1777632300 | 14.44° C | 92% | 1013.1 hPa | 0.51 mm | - | 0 W/m² | - |
| 1777631996 | 14.44° C | 92% | 1013.1 hPa | 0 mm | - | 0 W/m² | - |
* Rain latest hour (hover to see other rain measurements)
** Current wind speed in m/s (hover to see current wind gust speed)